[[{"header":{"parameterUnit":"m.s-1","parameterCategory":1,"la1":30.2991,"la2":30.254,"lo1":-89.0895,"lo2":-89.0444,"dy":0.0017,"dx":0.0017,"nx":28,"ny":28,"refTime":"2024-07-04T21:00:00:Z","depth":0,"parameterNumber":2,"parameterNumberName":"U-component_of_WINDS"},"data":[0,0,0,0,0,0,0,0,0,0,0,0,0,0,0,0,0,0,0,0,0,0,0,0,0,0,0,0,0,0,0,0,0,0,0,0,0,0,0,0,0,0,0,0,0,0,0,0,0,0,0,0,0,0,0,0,0,0,2.6038,2.6038,0,2.606,2.606,2.606,2.5978,2.5975,2.5973,2.5971,2.5995,2.5997,2.6,0,0,0,0,0,0,0,0,0,0,0,0,0,2.5923,2.5926,2.6038,2.6038,2.6038,2.606,2.606,2.606,2.5978,2.5975,2.5972,2.5969,2.5994,2.5997,2.6001,0,0,0,0,0,0,0,0,0,0,0,0,0,2.5962,2.5927,2.6037,2.6,2.5997,2.606,2.606,2.606,2.5979,2.5975,2.5972,2.5968,2.5992,2.5997,2.6001,2.6102,0,0,2.6014,2.6016,0,0,0,0,0,0,0,0,2.596,2.5966,2.6005,2.6002,2.5999,2.6012,2.6028,2.6074,2.598,2.5986,2.5971,2.5966,2.6003,2.6007,2.6019,2.6103,2.6104,2.6015,2.6018,2.6019,2.6021,0,0,0,0,0,0,0,2.5957,2.5965,2.6046,2.6006,2.6002,2.5981,2.5983,2.6037,2.6015,2.5985,2.5979,2.5983,2.6001,2.6015,2.6019,2.6104,2.6015,2.6019,2.6021,2.6023,2.6268,2.6272,0,0,0,0,0,0,2.596,2.5963,2.6046,2.6047,2.597,2.5986,2.5988,2.6012,2.6014,2.6011,2.5986,2.5979,2.6009,2.6014,2.602,2.6135,2.6019,2.6023,2.6026,2.6265,2.6269,2.6274,0,0,0,0,0,0,2.5958,2.5968,2.6045,2.6003,2.6012,2.5992,2.602,2.6014,2.6028,2.6015,2.6011,2.6004,2.6007,2.6013,2.6081,2.6135,2.6025,2.6029,2.626,2.6266,2.6271,2.6369,0,0,0,0,0,0,2.5955,2.5968,2.6006,2.6005,2.6014,2.6107,2.6023,2.6017,2.6035,2.6026,2.6031,2.6028,2.6004,2.6075,2.6085,2.6139,2.6033,2.6255,2.6263,2.627,2.6361,2.6377,2.6391,0,0,0,0,0,2.5951,2.6034,2.6008,2.6019,2.6062,2.611,2.6115,2.6086,2.604,2.6078,2.6069,2.6028,2.6128,2.6083,2.6094,2.6149,2.6252,2.6261,2.6269,2.6354,2.6374,2.6391,0,0,0,0,0,0,2.6043,2.6033,2.6005,2.609,2.6101,2.6096,2.6143,2.6109,2.6134,2.6124,2.6087,2.6089,2.6162,2.6163,2.6113,2.6245,2.6182,2.6193,2.6242,2.6261,2.6276,2.6274,2.6037,0,0,0,0,0,2.6073,2.6112,2.6102,2.6178,2.6185,2.6163,2.6183,2.6159,2.6169,2.6174,2.617,2.6182,2.6215,2.6239,2.6269,2.6361,2.6359,2.6404,2.6419,2.6432,2.6442,2.6487,2.6506,2.6302,2.6302,2.6302,0,0,2.6136,2.6135,2.6163,2.6196,2.6202,2.6243,2.6168,2.6215,2.6245,2.6181,2.6244,2.6242,2.6252,2.6332,2.6366,2.6334,2.6498,2.6443,2.6453,2.6456,2.6498,2.6518,2.6535,2.6308,2.6307,2.6306,0,0,2.627,2.6275,2.6337,2.6344,2.6353,2.6338,2.6353,2.6352,2.6348,2.641,2.6362,2.6397,2.6457,2.6465,2.6478,2.6613,2.6574,2.6624,2.6704,2.6748,2.6764,2.6778,2.6824,2.6842,2.6634,2.6634,2.6634,0,2.6347,2.6407,2.6374,2.6423,2.6438,2.6381,2.6443,2.6452,2.6471,2.6483,2.6446,2.6517,2.6521,2.66,2.6632,2.6645,2.666,2.6623,2.6765,2.6779,2.6791,2.6835,2.6852,2.664,2.6639,2.6639,2.6638,0,2.6499,2.6542,2.6591,2.6609,2.663,2.6686,2.666,2.6685,2.6659,2.6647,2.671,2.6712,2.674,2.6758,2.6734,2.6833,2.6812,2.6771,2.6706,2.6817,2.6857,2.6873,2.6648,2.6646,2.6644,2.6643,0,0,2.6694,2.6691,2.6709,2.6715,2.672,2.6752,2.6804,2.6831,2.6852,2.6867,2.6909,2.696,2.6921,2.6935,2.6911,2.695,2.7054,2.6904,2.6903,2.693,2.716,2.719,2.721,2.7029,2.7032,2.7035,2.7159,0,2.6824,2.6912,2.6882,2.6972,2.7009,2.6955,2.7,2.7008,2.6998,2.7027,2.7017,2.7052,2.6999,2.7007,2.7044,2.7034,2.7099,2.7025,2.7066,2.7068,2.7064,2.7231,2.7263,2.738,2.7174,2.7177,2.7179,0,2.6988,2.7007,2.71,2.7096,2.711,2.7151,2.7172,2.7202,2.7208,2.7198,2.7213,2.718,2.723,2.7166,2.7233,2.7183,2.7198,2.7196,2.7199,2.7201,2.7129,2.7235,2.7417,2.7433,2.7204,2.7202,2.72,0,2.7116,2.7166,2.7227,2.7234,2.7232,2.7262,2.7262,2.7265,2.7282,2.7301,2.7311,2.7336,2.7349,2.7368,2.7342,2.7298,2.7412,2.7347,2.7404,2.7405,2.743,2.7428,2.7614,2.7443,2.7443,2.7443,2.7442,0,2.7264,2.7322,2.7284,2.7322,2.7385,2.735,2.7414,2.7408,2.7411,2.7446,2.7401,2.7435,2.7399,2.7429,2.741,2.7467,2.7474,2.7466,2.746,2.7469,2.747,2.7478,2.7468,2.7447,2.7446,2.7445,2.7445,0,2.7418,2.7395,2.7458,2.7449,2.7449,2.7495,2.7488,2.7522,2.7508,2.7553,2.7561,2.754,2.7573,2.7549,2.7582,2.7569,2.7644,2.7627,2.7641,2.7636,2.7694,2.7688,2.789,2.7913,2.7729,2.7731,2.7733,0,2.7512,2.7556,2.7551,2.7571,2.7573,2.7606,2.7622,2.7589,2.7608,2.7618,2.765,2.7679,2.77,2.7755,2.7743,2.7767,2.775,2.7819,2.7753,2.776,2.7748,2.7745,2.7748,2.7832,2.7834,2.7836,2.7837,0,2.7682,2.7668,2.7693,2.7713,2.7734,2.7749,2.7761,2.7779,2.7745,2.7769,2.7801,2.7817,2.785,2.7879,2.7898,2.7898,2.7862,2.7858,2.7872,2.7881,2.7886,2.7882,2.7675,2.7853,2.7852,2.785,2.785,2.7849,2.7807,2.7842,2.7843,2.7872,2.7877,2.7888,2.7918,2.7907,2.7934,2.7957,2.7936,2.7974,2.7978,2.8,2.8005,2.8034,2.8005,2.8027,2.8032,2.8037,2.8044,2.7883,2.8038,2.8037,2.8037,2.8036,2.8036,0,2.7972,2.7969,2.7996,2.8012,2.8035,2.7998,2.8008,2.8029,2.8063,2.8069,2.809,2.8126,2.8153,2.8142,2.8166,2.8191,2.8175,2.8198,2.8195,2.8195,2.8069,2.8053,2.8211,2.8211,2.8211,2.8211,2.8211,2.8211,2.806,2.8116,2.8102,2.8159,2.8156,2.8192,2.8201,2.821,2.8214,2.8256,2.8278,2.827,2.8269,2.8292,2.8315,2.831,2.832,2.835,2.8339,2.8222,2.8204,2.8188,2.8173,2.8353,2.8353,2.8462,2.8463,2.8464]},{"header":{"parameterUnit":"m.s-1","parameterCategory":1,"la1":30.2991,"la2":30.254,"lo1":-89.0895,"lo2":-89.0444,"dy":0.0017,"dx":0.0017,"nx":28,"ny":28,"refTime":"2024-07-04T21:00:00:Z","depth":0,"parameterNumber":3,"parameterNumberName":"V-component_of_WINDS"},"data":[0,0,0,0,0,0,0,0,0,0,0,0,0,0,0,0,0,0,0,0,0,0,0,0,0,0,0,0,0,0,0,0,0,0,0,0,0,0,0,0,0,0,0,0,0,0,0,0,0,0,0,0,0,0,0,0,0,0,5.2381,5.2382,0,5.2515,5.2516,5.2518,5.2499,5.2497,5.2495,5.2493,5.2623,5.2628,5.2634,0,0,0,0,0,0,0,0,0,0,0,0,0,5.2102,5.2107,5.2381,5.2383,5.2384,5.2515,5.2516,5.2518,5.2499,5.2497,5.2494,5.2492,5.2621,5.2628,5.2634,0,0,0,0,0,0,0,0,0,0,0,0,0,5.2228,5.2108,5.2381,5.2391,5.2393,5.2514,5.2516,5.2519,5.25,5.2497,5.2493,5.249,5.2619,5.2627,5.2635,5.2752,0,0,5.266,5.2664,0,0,0,0,0,0,0,0,5.2221,5.2238,5.2388,5.239,5.2393,5.2487,5.2466,5.2597,5.2501,5.2459,5.2493,5.2489,5.258,5.2591,5.2623,5.2759,5.2764,5.2661,5.2666,5.267,5.2672,0,0,0,0,0,0,0,5.2212,5.2232,5.2434,5.239,5.2393,5.2386,5.24,5.249,5.2536,5.2463,5.2462,5.2478,5.2581,5.2615,5.2626,5.2766,5.2661,5.2668,5.2673,5.2677,5.3001,5.3005,0,0,0,0,0,0,5.2201,5.2225,5.2429,5.2438,5.2297,5.2394,5.241,5.246,5.2535,5.2544,5.2481,5.2477,5.2603,5.2617,5.2631,5.2771,5.267,5.2677,5.2682,5.2998,5.3002,5.3006,0,0,0,0,0,0,5.2195,5.222,5.2424,5.2331,5.2357,5.2402,5.2459,5.2464,5.2499,5.2549,5.2556,5.2508,5.2601,5.2619,5.2722,5.2776,5.2681,5.2689,5.2994,5.2999,5.3004,5.3055,0,0,0,0,0,0,5.2188,5.2218,5.2265,5.2332,5.2362,5.2516,5.2462,5.2469,5.2514,5.251,5.2577,5.2585,5.26,5.271,5.273,5.2785,5.2695,5.2989,5.2996,5.3003,5.3049,5.3061,5.3072,0,0,0,0,0,5.2178,5.2273,5.2267,5.2292,5.2422,5.2519,5.2535,5.2553,5.2519,5.2565,5.2597,5.2582,5.2767,5.2721,5.2744,5.2802,5.2986,5.2994,5.3002,5.3043,5.3059,5.3072,0,0,0,0,0,0,5.2208,5.2282,5.2277,5.2397,5.2452,5.2516,5.2575,5.2569,5.2633,5.2626,5.2643,5.2658,5.2762,5.2792,5.274,5.2918,5.2871,5.2884,5.2895,5.291,5.2922,5.2911,5.2702,0,0,0,0,0,5.2229,5.2305,5.2364,5.2464,5.2492,5.2529,5.2572,5.258,5.2637,5.266,5.2699,5.2753,5.2822,5.2868,5.2935,5.3053,5.3066,5.3104,5.3116,5.3126,5.3136,5.3199,5.3216,5.3033,5.3033,5.3033,0,0,5.2273,5.2322,5.2369,5.2471,5.2515,5.259,5.2548,5.263,5.2685,5.2671,5.2771,5.2802,5.2863,5.2973,5.3024,5.3002,5.319,5.3136,5.3143,5.3149,5.3209,5.3226,5.3241,5.3039,5.3038,5.3037,0,0,5.239,5.2437,5.2524,5.2569,5.2637,5.266,5.2681,5.2746,5.2766,5.2868,5.2859,5.2923,5.3043,5.3086,5.3124,5.3257,5.3245,5.3278,5.334,5.34,5.3415,5.3427,5.3473,5.3489,5.3289,5.3289,5.3289,0,5.2435,5.2551,5.257,5.2652,5.2696,5.269,5.2777,5.2819,5.2904,5.2933,5.2908,5.3058,5.3099,5.3218,5.3251,5.3282,5.3304,5.327,5.3411,5.3424,5.3437,5.348,5.3497,5.3292,5.3292,5.3292,5.3291,0,5.2601,5.2681,5.2743,5.2828,5.2879,5.2963,5.2993,5.3042,5.3046,5.3071,5.3172,5.3221,5.3297,5.3326,5.333,5.3446,5.343,5.3408,5.3361,5.3457,5.3498,5.3515,5.3297,5.3296,5.3295,5.3294,0,0,5.2742,5.2835,5.2858,5.2895,5.2968,5.3029,5.3112,5.3188,5.3229,5.3287,5.3355,5.3457,5.3437,5.348,5.3489,5.3542,5.3642,5.3513,5.3515,5.3534,5.377,5.3785,5.3804,5.3635,5.3638,5.3641,5.3764,0,5.2865,5.3014,5.3033,5.3164,5.3236,5.3231,5.3302,5.3354,5.3379,5.3442,5.3469,5.3541,5.351,5.3535,5.3588,5.3618,5.3689,5.361,5.3696,5.3699,5.3679,5.3826,5.3842,5.3956,5.378,5.3783,5.3785,0,5.3029,5.3094,5.3233,5.3295,5.3326,5.339,5.3461,5.3522,5.3579,5.3593,5.3641,5.3643,5.3725,5.3676,5.3789,5.3735,5.3771,5.3791,5.3795,5.3803,5.3747,5.3835,5.3993,5.4009,5.3811,5.3809,5.3807,0,5.3115,5.3237,5.3335,5.3367,5.3443,5.3488,5.3521,5.3575,5.3619,5.368,5.3708,5.3777,5.3815,5.3867,5.3886,5.3849,5.3997,5.3949,5.4009,5.4008,5.4039,5.4037,5.4203,5.4065,5.4065,5.4065,5.4065,0,5.325,5.3334,5.3375,5.3435,5.3529,5.3549,5.364,5.3671,5.3719,5.3783,5.3782,5.3841,5.3864,5.3926,5.3942,5.4031,5.4048,5.4061,5.4063,5.406,5.4058,5.4083,5.4075,5.4069,5.4068,5.4068,5.4067,0,5.3361,5.3392,5.3499,5.3562,5.3579,5.3645,5.3698,5.3755,5.378,5.3861,5.3881,5.3919,5.3993,5.4017,5.4106,5.4116,5.422,5.4217,5.4201,5.4201,5.4259,5.4252,5.4446,5.4471,5.4318,5.4319,5.432,0,5.3445,5.351,5.358,5.3624,5.3659,5.373,5.3775,5.3797,5.3843,5.3912,5.396,5.4034,5.4094,5.4211,5.4245,5.4312,5.4309,5.4372,5.4319,5.4313,5.4308,5.4303,5.4309,5.4382,5.4383,5.4385,5.4386,0,5.3589,5.36,5.3667,5.3739,5.3793,5.385,5.3905,5.3941,5.397,5.4022,5.4098,5.4145,5.4236,5.4307,5.4376,5.4407,5.4401,5.4403,5.4419,5.4416,5.4404,5.4409,5.4227,5.4398,5.4396,5.4395,5.4395,5.4394,5.3687,5.3744,5.3803,5.3876,5.392,5.3971,5.4028,5.406,5.4125,5.4202,5.421,5.4291,5.4344,5.4436,5.447,5.4533,5.4514,5.454,5.4546,5.4551,5.4555,5.4395,5.4545,5.4545,5.4545,5.4544,5.4544,0,5.3829,5.3867,5.3934,5.4012,5.4069,5.4061,5.4121,5.4168,5.4241,5.4292,5.4351,5.4438,5.4507,5.4547,5.4616,5.4658,5.4657,5.4675,5.4671,5.4678,5.4568,5.4545,5.4675,5.4675,5.4675,5.4675,5.4675,5.4675,5.391,5.4006,5.4024,5.414,5.4176,5.4258,5.4292,5.4338,5.4379,5.4477,5.4535,5.4561,5.4607,5.468,5.4742,5.4752,5.4776,5.4797,5.4804,5.47,5.4686,5.4673,5.4652,5.4802,5.4802,5.4909,5.491,5.4911]}]]